Weather History for Jefferson, GA

Change the Weather History Date:

Saturday, May 11, 2013

  Actual Average (KGVL) Record (KGVL)
Temperature  
Mean Temperature 68 °F 67 °F  
Max Temperature 77 °F 77 °F 91 °F (1963)
Min Temperature 59 °F 57 °F 37 °F (1941)
Cooling Degree Days 3 3  
Month to date cooling degree days 28  
Year to date cooling degree days 67  
Growing Degree Days 18 (Base 50)    
Moisture  
Dew Point 55 °F    
Average Humidity 66    
Maximum Humidity 94    
Minimum Humidity 38    
Precipitation  
Precipitation 0.00 in 0.12 in 1.38 in (1981)
Month to date precipitation 1.40  
Year to date precipitation 20.28  
Sea Level Pressure  
Sea Level Pressure 29.95 in    
Wind  
Wind Speed 4 mph (West)    
Max Wind Speed 13 mph    
Max Gust Speed 20 mph    
Visibility 10 miles    
Events Rain    
T = Trace of Precipitation, MM = Missing Value Source: NWS Daily Summary

Daily Weather History Graph

Daily Weather History Graph

Search for Another Location

Airport:

Trip Planner

Search our weather history database for the weather conditions in past years. The results will help you decide how hot, cold, wet, or windy it might be!

Date:

Astronomy

May. 11, 2013 Rise Set
Actual Time 6:35 AM EDT 8:26 PM EDT
Civil Twilight 6:07 AM EDT 8:53 PM EDT
Nautical Twilight 5:34 AM EDT 9:27 PM EDT
Astronomical Twilight 4:59 AM EDT 10:02 PM EDT
Moon 7:43 AM EDT (5/11) 10:04 PM EDT (5/11)
Length of Visible Light 14h 45m
Length of Day
13h 50m
Waxing Crescent, 3% of the Moon is Illuminated
May 11
Waxing Crescent
May 18
First Quarter
May 25
Full
May 31
Last Quarter
Jun 8
New

Hourly Weather History & Observations

Time (EDT) Temp. Dew Point Humidity Pressure Visibility Wind Dir Wind Speed Gust Speed Precip Events Conditions
12:15 AM 68.0 °F 50.0 °F 52% 30.01 in 10.0 mi WSW 3.5 mph - N/A   Overcast
12:35 AM 66.2 °F 50.0 °F 56% 30.01 in 10.0 mi West 3.5 mph - N/A   Overcast
12:55 AM 68.0 °F 50.0 °F 52% 30.01 in 10.0 mi WSW 3.5 mph - N/A   Overcast
1:15 AM 68.0 °F 50.0 °F 52% 30.01 in 10.0 mi West 3.5 mph - N/A   Overcast
1:35 AM 68.0 °F 50.0 °F 52% 30.00 in 10.0 mi Calm Calm - N/A   Overcast
1:55 AM 66.2 °F 50.0 °F 56% 30.00 in 10.0 mi Calm Calm - N/A   Overcast
2:15 AM 66.2 °F 50.0 °F 56% 29.99 in 10.0 mi Calm Calm - N/A   Overcast
2:35 AM 62.6 °F 51.8 °F 68% 29.98 in 10.0 mi Calm Calm - N/A   Mostly Cloudy
2:55 AM 64.4 °F 50.0 °F 59% 29.98 in 10.0 mi Calm Calm - N/A   Mostly Cloudy
3:15 AM 64.4 °F 50.0 °F 59% 29.97 in 10.0 mi Calm Calm - N/A   Mostly Cloudy
3:35 AM 62.6 °F 51.8 °F 68% 29.97 in 10.0 mi Calm Calm - N/A   Overcast
3:55 AM 64.4 °F 51.8 °F 64% 29.97 in 10.0 mi Calm Calm - N/A   Overcast
4:15 AM 64.4 °F 51.8 °F 64% 29.96 in 10.0 mi Calm Calm - N/A   Mostly Cloudy
4:35 AM 62.6 °F 55.4 °F 77% 29.96 in 10.0 mi Calm Calm - N/A   Mostly Cloudy
4:55 AM 64.4 °F 50.0 °F 59% 29.96 in 10.0 mi Calm Calm - N/A   Scattered Clouds
5:15 AM 62.6 °F 51.8 °F 68% 29.96 in 10.0 mi Calm Calm - N/A   Clear
5:35 AM 62.6 °F 51.8 °F 68% 29.96 in 10.0 mi Calm Calm - N/A   Clear
5:55 AM 60.8 °F 55.4 °F 82% 29.95 in 10.0 mi Calm Calm - N/A   Clear
6:35 AM 59.0 °F 55.4 °F 88% 29.95 in 10.0 mi Calm Calm - N/A   Clear
6:55 AM 59.0 °F 55.4 °F 88% 29.96 in 10.0 mi Calm Calm - N/A   Clear
7:15 AM 59.0 °F 57.2 °F 94% 29.96 in 10.0 mi Calm Calm - N/A   Clear
7:35 AM 60.8 °F 57.2 °F 88% 29.96 in 10.0 mi Calm Calm - N/A   Clear
7:55 AM 62.6 °F 57.2 °F 82% 29.98 in 10.0 mi West 3.5 mph - N/A   Clear
8:15 AM 64.4 °F 57.2 °F 77% 29.96 in 10.0 mi West 3.5 mph - N/A   Clear
8:35 AM 64.4 °F 57.2 °F 77% 29.97 in 10.0 mi West 4.6 mph - N/A   Clear
8:55 AM 66.2 °F 57.2 °F 73% 29.98 in 10.0 mi West 6.9 mph - N/A   Clear
9:15 AM 68.0 °F 53.6 °F 60% 29.98 in 10.0 mi West 6.9 mph - N/A   Clear
9:35 AM 68.0 °F 53.6 °F 60% 29.98 in 10.0 mi West 6.9 mph - N/A   Clear
9:55 AM 69.8 °F 53.6 °F 56% 29.97 in 10.0 mi WNW 8.1 mph 16.1 mph N/A   Clear
10:15 AM 69.8 °F 53.6 °F 56% 29.98 in 10.0 mi WNW 8.1 mph - N/A   Mostly Cloudy
10:35 AM 71.6 °F 53.6 °F 53% 29.97 in 10.0 mi WNW 8.1 mph - N/A   Mostly Cloudy
10:55 AM 69.8 °F 53.6 °F 56% 29.98 in 10.0 mi WNW 9.2 mph - N/A   Mostly Cloudy
11:15 AM 71.6 °F 51.8 °F 50% 29.97 in 10.0 mi West 5.8 mph - N/A   Mostly Cloudy
11:35 AM 71.6 °F 51.8 °F 50% 29.96 in 10.0 mi West 6.9 mph 17.3 mph N/A   Scattered Clouds
11:55 AM 73.4 °F 51.8 °F 47% 29.97 in 10.0 mi West 10.4 mph - N/A   Mostly Cloudy
12:15 PM 71.6 °F 51.8 °F 50% 29.97 in 10.0 mi West 5.8 mph - N/A   Overcast
12:35 PM 71.6 °F 53.6 °F 53% 29.98 in 10.0 mi West 5.8 mph - N/A   Overcast
12:55 PM 71.6 °F 53.6 °F 53% 29.97 in 10.0 mi WNW 4.6 mph - N/A   Mostly Cloudy
1:35 PM 73.4 °F 51.8 °F 47% 29.95 in 10.0 mi NW 10.4 mph - N/A   Mostly Cloudy
1:55 PM 73.4 °F 51.8 °F 47% 29.95 in 10.0 mi WNW 11.5 mph - N/A   Mostly Cloudy
2:35 PM 73.4 °F 51.8 °F 47% 29.95 in 10.0 mi West 8.1 mph - N/A   Mostly Cloudy
2:55 PM 73.4 °F 51.8 °F 47% 29.94 in 10.0 mi WNW 10.4 mph - N/A   Mostly Cloudy
3:15 PM 71.6 °F 51.8 °F 50% 29.94 in 10.0 mi SW 9.2 mph - N/A   Overcast
3:35 PM 73.4 °F 51.8 °F 47% 29.94 in 10.0 mi West 6.9 mph - N/A   Scattered Clouds
3:55 PM 73.4 °F 51.8 °F 47% 29.93 in 10.0 mi West 10.4 mph - N/A   Clear
4:15 PM 75.2 °F 50.0 °F 41% 29.92 in 10.0 mi West 10.4 mph 16.1 mph N/A   Clear
4:35 PM 75.2 °F 48.2 °F 38% 29.91 in 10.0 mi WSW 10.4 mph 19.6 mph N/A   Clear
4:55 PM 77.0 °F 50.0 °F 39% 29.91 in 10.0 mi WSW 12.7 mph 16.1 mph N/A   Scattered Clouds
5:15 PM 73.4 °F 51.8 °F 47% 29.90 in 10.0 mi SW 8.1 mph - N/A   Scattered Clouds
5:35 PM 73.4 °F 51.8 °F 47% 29.90 in 10.0 mi West 9.2 mph - N/A   Light Drizzle
5:55 PM 73.4 °F 51.8 °F 47% 29.89 in 10.0 mi West 8.1 mph - N/A   Mostly Cloudy
6:15 PM 71.6 °F 51.8 °F 50% 29.89 in 10.0 mi West 4.6 mph - N/A   Mostly Cloudy
6:35 PM 69.8 °F 53.6 °F 56% 29.89 in 10.0 mi WSW 6.9 mph - N/A Rain Rain
6:55 PM 68.0 °F 55.4 °F 64% 29.89 in 10.0 mi WSW 5.8 mph - N/A   Light Drizzle
7:15 PM 68.0 °F 60.8 °F 78% 29.88 in 10.0 mi Calm Calm - N/A   Overcast
7:35 PM 66.2 °F 62.6 °F 88% 29.90 in 10.0 mi South 5.8 mph - N/A   Overcast
7:55 PM 64.4 °F 60.8 °F 88% 29.90 in 10.0 mi SSW 5.8 mph - N/A   Mostly Cloudy
8:15 PM 64.4 °F 60.8 °F 88% 29.90 in 10.0 mi SSW 5.8 mph - N/A   Overcast
8:35 PM 64.4 °F 62.6 °F 94% 29.91 in 10.0 mi WSW 3.5 mph - N/A   Mostly Cloudy
8:55 PM 64.4 °F 62.6 °F 94% 29.92 in 10.0 mi West 3.5 mph - N/A   Overcast
9:15 PM 64.4 °F 59.0 °F 83% 29.92 in 10.0 mi Calm Calm - N/A   Overcast
9:35 PM 64.4 °F 60.8 °F 88% 29.93 in 10.0 mi Calm Calm - N/A   Mostly Cloudy
9:55 PM 64.4 °F 62.6 °F 94% 29.93 in 10.0 mi SSW 3.5 mph - N/A   Mostly Cloudy
10:15 PM 64.4 °F 62.6 °F 94% 29.93 in 10.0 mi Calm Calm - N/A   Scattered Clouds
10:35 PM 64.4 °F 62.6 °F 94% 29.93 in 10.0 mi WSW 4.6 mph - N/A   Clear
10:55 PM 64.4 °F 62.6 °F 94% 29.93 in 10.0 mi West 3.5 mph - N/A   Clear
11:15 PM 64.4 °F 62.6 °F 94% 29.93 in 10.0 mi West 4.6 mph - N/A   Clear
11:35 PM 62.6 °F 60.8 °F 94% 29.94 in 10.0 mi WNW 4.6 mph - N/A   Clear
11:55 PM 62.6 °F 60.8 °F 94% 29.93 in 10.0 mi West 4.6 mph - N/A Rain Light Rain